• Processing (Info)

  • MPEC 2013-T61 : 2013 TQ12

    The following Minor Planet Electronic Circular may be linked-to from your own Web pages, but must not otherwise be redistributed electronically.

    A form allowing access to any MPEC is at the bottom of this page.


    Read MPEC 2013-T60 Read MPEC 2013-T62


    M.P.E.C. 2013-T61                                Issued 2013 Oct. 7, 10:51 UT
    
         The Minor Planet Electronic Circulars contain information on unusual
             minor planets and routine data on comets.  They are published
       on behalf of Commission 20 of the International Astronomical Union by the
              Minor Planet Center, Smithsonian Astrophysical Observatory,
                              Cambridge, MA 02138, U.S.A.
    
                 Prepared using the Tamkin Foundation Computer Network
    
                                  MPC@CFA.HARVARD.EDU
                URL http://www.minorplanetcenter.net/    ISSN 1523-6714
    
                                       2013 TQ12
    
    Observations:
         K13T12Q* C2013 10 05.38477 02 21 33.897+17 17 46.04         21.5 wLET061F51
         K13T12Q  C2013 10 05.39840 02 21 28.899+17 17 55.26         21.3 wLET061F51
         K13T12Q  C2013 10 05.41204 02 21 23.907+17 18 04.44         21.4 wLET061F51
         K13T12Q  C2013 10 05.42578 02 21 18.890+17 18 13.57         21.5 wLET061F51
         K13T12Q KC2013 10 06.41543 02 15 42.12 +17 27 28.1          21.1 RoET061291
         K13T12Q KC2013 10 06.41844 02 15 41.03 +17 27 29.4          21.7 RoET061291
         K13T12Q KC2013 10 06.42145 02 15 40.02 +17 27 31.1          21.6 RoET061291
         K13T12Q KC2013 10 07.42093 02 10 20.57 +17 35 26.8          20.9 RoET061291
         K13T12Q KC2013 10 07.42393 02 10 19.57 +17 35 27.4          20.8 RoET061291
         K13T12Q KC2013 10 07.42695 02 10 18.57 +17 35 28.7          21.0 RoET061291
    
    Observer details:
    291 LPL/Spacewatch II.  Observer R. S. McMillan.  1.8-m f/2.7 reflector + CCD.
    F51 Pan-STARRS 1, Haleakala.  Observers N. Primak, A. Schultz. T. Goggia,
        M. Willman.  Measurer PS1 Science Consortium.  1.8-m Ritchey-Chretien
        + CCD.
    
    Orbital elements:
    2013 TQ12                                                Earth MOID = 0.0331 AU
    Epoch 2013 Nov. 4.0 TT = JDT 2456600.5                  MPC
    M  51.37231              (2000.0)            P               Q
    n   0.52162800     Peri.  274.70274     +0.29441162     +0.95525393
    a   1.5283710      Node    12.53181     -0.81650443     +0.26691728
    e   0.4844011      Incl.    7.54502     -0.49663097     +0.12745623
    P   1.89           H   23.7           G   0.15           U   7
    Residuals in seconds of arc
    131005 F51  0.2+  0.1-    131006 291  0.3+  0.3+    131007 291  0.1-  0.4-
    131005 F51  0.1-  0.1-    131006 291  0.4-  0.1+    131007 291  0.3-  0.3-
    131005 F51  0.2-  0.0     131006 291  0.1+  0.3+
    131005 F51  0.0   0.1+    131007 291  0.2+  0.2+
    
    Ephemeris:
    2013 TQ12                a,e,i = 1.53, 0.48, 8                   q = 0.7880
    Date    TT    R. A. (2000) Decl.     Delta      r     Elong.  Phase     V
    2013 09 07    07 36 56.5 -07 31 55   0.1065  0.9476    53.0   121.8    23.7
    ...
    2013 09 22    04 15 01.6 +10 52 28   0.1118  1.0554   114.7    59.8    21.2
    ...
    2013 09 30    02 57 55.2 +15 51 33   0.1444  1.1162   140.1    35.1    21.2
    ...
    2013 10 06    02 18 01.5 +17 23 55   0.1773  1.1623   154.5    21.8    21.3
    2013 10 07    02 12 34.2 +17 32 29   0.1834  1.1700   156.5    19.9    21.4
    2013 10 08    02 07 24.9 +17 39 36   0.1896  1.1777   158.5    18.1    21.4
    ...
    2013 10 14    01 41 57.6 +17 59 20   0.2303  1.2239   168.3     9.6    21.6
    ...
    2013 10 22    01 19 24.4 +17 51 21   0.2928  1.2849   170.5     7.3    22.1
    ...
    2013 11 06    00 59 31.2 +17 12 10   0.4338  1.3963   154.9    17.6    23.5
    
    A. U. Tomatic                (C) Copyright 2013 MPC           M.P.E.C. 2013-T61
    

    Read MPEC 2013-T60 Read MPEC 2013-T62


    MPEC number:

    Enter an MPEC number in one of the following forms:

    • 1997-B01 (the full form)
    • J97B01 (the packed version of the full form)
    • B01 (the abbreviated form)